{"data":{"norad_id":53799,"intl_designator":"2022-111AC","name":"STARLINK-4710","alt_names":[],"object_type":"PAYLOAD","status":"ACTIVE","operator":null,"country":"US","launch_date":"2022-09-11","launch_site_code":"AFETR","launch_vehicle":null,"mission":null,"orbit_class":"UNKNOWN","rcs_meters":null,"size_class":null,"mass_kg":null,"dimensions":null,"purposes":["comms"],"wikipedia_slug":null,"has_3d_model":false,"image_url":null,"decayed_at":null,"tle_current":{"epoch":"2026-05-24T15:44:16.782720Z","epoch_age_seconds":107936,"freshness":"FRESH","line1":"1 53799U 22111AC  26144.65574980  .00000695  00000+0  61728-4 0  9998","line2":"2 53799  53.2150 283.1665 0001504  89.1482 270.9683 15.08843730205285","mean_motion":15.0884373,"eccentricity":0.0001504,"inclination_deg":53.215,"raan_deg":283.1665,"arg_perigee_deg":89.1482,"mean_anomaly_deg":270.9683,"bstar":6.1728e-5,"rev_number":20528,"period_min":95.437318747383,"perigee_km":538.69154037402,"apogee_km":540.77243536558,"semimajor_km":6917.8689878698,"source":"CELESTRAK","updated_at":"2026-05-25T13:38:17.545634Z"}}}